Tracking 19193 objects as of 23-Jun-2018
HD Live streaming from Space Station
objects crossing your sky now

FENGYUN 1C DEB

Track FENGYUN 1C DEB now!
10-day predictions


NORAD ID: 30820
Int'l Code: 1999-025AVE
Perigee: 838.4 km
Apogee: 928.3 km
Inclination: 98.6 °
Period: 102.5 minutes
Semi major axis: 7254 km
RCS: 0.0172 m2 (small)
Launch date: May 10, 1999
Source: People's Republic of China (PRC)
Launch site: Taiyaun Space Center, China (TSC)

Note: This is SATELLITE DEBRIS
aabbcc
Your satellite tracking list
Your tracking list is empty




NASA's NSSDC Master Catalog

Two Line Element Set (TLE):
1 30820U 99025AVE 18173.42175531 +.00000533 +00000-0 +34960-3 0  9992
2 30820 098.5782 341.2865 0061912 012.5621 016.9380 14.05093783579625
Source of the keplerian elements: AFSPC